RH
25 26 26 25 25 28 32 31 30 30 27 27 26 26 26 25 26 27 27 27 26 26 26 25 25 26 25 22 20 18 15 13 15 22 24 25 26 24 23 26 27 25 25 25 23 21 19 18 18 18 18 17 18 21 24 28 30 31 32 33 34 35 35 37 38 38 38 38 38 36 37 36 31 28 26 27 27 26 27 26 24 24 25 26 28
23 25 26 24 24 26 29 29 29 30 28 28 27 27 27 26 27 28 28 27 26 25 25 26 25 24 22 19 16 15 14 12 12 17 20 24 28 28 27 27 26 24 24 25 22 20 19 19 19 19 19 19 22 25 28 30 31 33 33 33 33 35 36 37 38 38 38 39 37 34 35 35 30 27 27 26 26 26 27 27 26 26 27 28 30
22 24 25 23 24 25 27 29 30 30 30 29 28 27 28 28 28 28 28 27 26 26 26 26 25 22 18 17 15 14 15 14 15 17 17 23 29 29 28 26 24 23 24 24 21 19 19 19 20 20 21 22 25 28 30 32 33 33 33 32 33 35 37 38 40 39 39 40 37 33 34 34 30 27 27 25 26 28 30 31 30 30 31 31 31
23 23 24 24 24 25 27 29 30 31 32 31 30 29 28 29 29 28 26 25 26 28 28 26 23 20 17 15 15 15 15 15 16 17 16 22 29 29 26 23 22 21 23 22 19 19 19 20 21 21 22 25 28 30 31 33 34 33 33 33 34 37 38 41 43 41 41 39 36 34 34 34 29 27 26 24 25 29 32 33 33 34 33 33 32
24 24 24 24 24 26 27 29 31 32 33 33 32 30 29 30 30 28 25 23 26 28 28 27 24 20 17 14 15 15 15 16 16 16 16 21 28 28 23 20 20 21 21 19 18 18 19 20 21 23 24 28 30 31 33 33 35 35 35 34 34 36 39 43 44 42 41 37 36 35 34 33 28 26 26 25 26 29 31 33 33 33 33 34 34
25 25 24 25 25 27 29 30 31 33 33 34 35 32 30 30 30 28 25 24 26 27 27 27 24 20 18 15 14 15 15 16 16 16 16 20 24 23 19 19 20 20 18 18 18 18 19 21 22 24 26 30 32 33 34 34 36 37 36 34 34 37 40 44 42 40 40 38 38 37 35 32 27 24 26 27 28 29 31 32 32 32 32 33 33
26 26 26 25 26 28 29 30 32 34 34 34 35 34 32 31 31 29 26 24 26 27 26 26 25 22 19 17 15 15 16 16 17 17 19 22 21 19 18 18 18 18 17 17 17 18 19 21 23 24 28 31 32 34 35 36 38 38 36 35 35 36 38 40 40 39 40 40 40 39 36 32 25 25 26 28 29 31 32 32 32 32 32 32 31
28 27 27 27 27 29 30 31 32 34 34 35 36 35 34 33 33 30 27 25 26 26 25 25 25 23 20 18 16 15 15 16 18 20 22 24 22 18 18 17 17 17 17 17 17 18 19 21 22 24 28 31 33 35 36 37 38 38 36 36 35 34 33 35 38 40 42 42 41 40 37 30 24 25 28 29 31 32 33 33 32 32 32 33 33
29 29 28 27 27 29 30 31 33 34 34 35 36 36 35 34 34 31 28 26 25 26 25 24 25 24 21 19 18 16 16 17 19 22 23 23 23 20 18 16 16 16 16 17 18 19 19 21 22 24 28 31 33 36 37 38 38 37 35 36 35 32 31 34 37 41 44 43 42 40 35 29 24 27 30 30 32 33 33 33 33 34 34 35 35
30 30 29 28 28 29 30 32 32 33 34 35 36 36 35 35 35 32 30 27 25 25 24 24 24 24 22 20 19 18 18 19 21 23 22 23 23 22 18 16 15 16 16 17 18 19 20 22 22 24 28 30 34 35 37 38 37 37 34 34 33 31 31 35 39 41 43 44 42 39 33 27 25 28 31 31 31 32 33 33 34 35 35 36 36
33 31 30 30 29 29 30 31 32 32 33 34 35 36 36 35 35 34 32 29 27 26 24 23 23 23 23 20 19 19 19 20 22 23 24 23 22 22 19 16 15 16 17 18 19 19 20 21 22 24 26 29 32 35 35 37 36 35 33 32 31 30 32 36 40 41 43 45 43 39 32 26 26 29 32 32 32 32 33 33 34 34 35 36 36
36 33 31 31 31 30 30 32 32 32 33 34 35 36 36 35 34 34 33 31 28 26 24 23 22 23 23 21 19 19 20 20 21 23 24 23 21 22 20 18 16 16 17 18 19 19 21 21 22 24 26 28 31 32 33 34 35 34 33 31 29 31 33 37 40 43 45 45 44 38 31 27 28 30 32 33 33 33 33 33 34 34 35 36 36
41 37 34 32 31 30 31 31 32 32 33 33 35 36 36 34 34 34 33 31 29 27 24 22 21 23 24 22 19 18 19 20 21 22 24 24 22 22 21 20 17 17 17 18 19 19 20 21 22 23 26 28 29 29 30 31 33 33 32 30 29 31 34 39 43 45 46 46 43 37 31 29 29 33 35 35 34 33 33 34 34 36 37 37 37
46 42 38 35 32 31 30 31 31 31 32 33 33 34 35 33 33 33 33 32 30 26 24 21 20 22 24 22 19 18 18 19 20 21 23 25 24 23 22 22 19 18 18 18 19 20 20 21 22 24 26 27 27 27 27 29 31 31 30 29 29 31 35 41 46 46 47 46 42 36 32 30 29 33 35 35 34 34 33 33 36 38 38 38 37
48 45 41 37 33 31 31 31 31 31 31 32 32 33 34 33 33 32 33 33 31 27 23 21 20 21 24 22 19 17 17 18 20 21 23 25 27 26 24 23 21 20 20 20 20 21 21 21 22 25 26 27 27 26 26 26 27 27 26 27 29 32 36 42 46 46 46 46 42 37 33 30 30 31 32 33 34 34 34 34 36 38 38 39 36
48 45 42 38 34 32 31 31 31 31 31 31 31 32 32 33 33 32 33 34 31 27 24 21 19 21 22 22 19 18 17 17 19 21 23 26 28 28 28 26 24 23 22 23 23 24 24 24 25 28 29 29 27 26 26 25 25 25 24 24 27 31 35 42 45 45 48 46 42 38 33 30 30 31 32 35 35 34 35 35 37 38 38 37 35
47 44 42 38 34 32 31 31 32 32 32 32 32 32 32 33 34 33 33 34 31 27 24 20 18 20 22 21 20 19 18 17 18 20 23 26 29 30 30 29 28 26 25 25 26 27 29 29 30 32 32 30 29 28 27 27 26 25 24 25 28 31 36 43 47 49 50 46 42 39 34 31 31 33 34 35 36 36 37 37 38 39 37 35 33
45 44 41 38 34 34 33 32 33 32 32 32 34 34 35 35 35 35 34 34 31 27 24 20 18 20 21 20 20 19 18 18 18 20 23 27 29 29 29 30 31 29 27 25 26 28 31 33 34 35 34 32 31 30 29 28 27 25 26 28 31 34 41 47 51 53 50 46 43 38 34 33 33 34 34 35 36 37 39 38 39 39 36 35 34
45 42 40 37 34 34 34 34 34 34 33 33 34 36 38 39 38 37 36 34 31 28 24 20 18 20 20 18 19 20 19 18 18 19 23 26 29 29 29 30 31 30 27 25 26 27 30 33 36 37 36 34 33 33 31 30 28 28 31 33 35 41 47 51 55 55 51 46 43 38 35 33 33 34 35 36 37 39 39 39 38 38 36 35 34
43 41 38 36 33 33 33 34 35 35 36 35 36 38 40 41 41 40 37 35 31 27 23 20 19 20 20 18 17 19 20 19 19 19 21 25 27 30 31 31 32 32 29 27 27 27 29 30 34 37 38 37 37 36 34 33 33 33 36 39 41 48 52 54 57 56 51 47 43 38 36 34 34 34 35 36 39 40 40 40 39 37 35 35 35
40 39 37 35 33 32 32 33 34 36 37 37 38 40 42 43 43 41 39 36 31 27 23 20 20 21 19 17 17 18 20 20 20 19 20 23 26 29 33 34 34 34 34 31 30 30 29 29 34 39 41 41 42 42 38 37 38 38 41 43 47 53 56 57 58 56 52 47 42 40 37 36 34 35 36 37 40 41 40 41 39 36 36 36 36
38 36 35 35 34 33 32 32 33 34 35 36 38 42 44 44 43 41 39 36 31 26 22 21 21 21 19 16 16 17 19 20 21 20 20 22 24 28 32 35 37 37 36 33 32 33 32 33 38 42 43 43 45 46 43 41 42 42 44 47 51 57 60 62 61 59 55 48 43 41 39 38 37 36 38 38 40 41 42 41 39 37 36 37 37
38 35 34 34 34 33 32 30 31 31 32 34 37 42 45 44 42 41 39 36 32 27 23 21 21 20 19 16 16 17 19 20 21 21 21 22 23 27 31 34 37 38 37 34 32 33 34 39 41 42 43 43 46 48 46 46 45 45 47 49 55 59 63 67 65 62 56 49 45 43 41 40 39 38 39 40 41 42 43 41 39 39 37 37 37
39 37 36 35 34 34 33 30 30 29 30 33 36 41 44 43 41 41 40 37 32 27 24 22 20 20 19 17 17 17 18 20 21 22 22 22 23 25 28 31 36 39 38 34 32 32 36 42 43 42 41 41 45 50 50 51 49 48 49 53 58 62 66 69 68 62 54 49 46 44 42 41 40 39 40 41 42 43 43 40 38 40 39 38 37
41 40 40 38 36 36 35 32 30 29 30 31 34 39 41 41 40 40 40 37 32 27 24 22 19 19 20 18 17 17 18 19 21 22 23 24 24 25 26 29 34 39 40 37 33 33 38 43 43 42 41 40 45 51 54 55 54 52 52 56 62 64 68 70 68 62 54 50 47 44 41 38 37 39 41 42 43 43 42 39 39 41 39 35 32
44 43 40 38 39 39 37 34 31 30 30 31 33 36 39 39 38 39 38 35 31 26 23 21 19 19 20 19 18 18 19 20 21 22 23 25 26 27 28 31 35 39 41 40 37 37 41 44 44 43 42 40 44 52 57 58 58 57 57 62 65 65 68 68 66 62 56 53 48 43 38 35 34 37 40 42 42 42 41 39 39 39 35 29 23
45 45 42 39 39 40 37 35 33 31 31 30 32 34 36 37 37 37 36 34 29 24 22 20 18 18 19 19 19 20 21 23 24 24 25 26 29 31 33 36 38 40 42 42 42 43 46 48 47 45 45 45 47 53 58 61 62 63 63 66 67 67 69 68 65 62 57 53 48 41 37 35 35 36 38 39 40 40 39 37 37 34 27 20 16
47 46 44 42 40 38 36 35 34 32 31 30 31 33 35 36 37 37 35 34 28 24 21 19 18 17 18 20 22 24 26 28 29 30 30 29 31 35 37 39 40 41 42 43 46 49 50 51 50 49 49 52 53 56 60 63 67 71 71 70 71 72 73 69 64 62 56 51 46 41 39 39 39 39 39 40 39 38 37 35 32 25 18 15 14
48 46 45 45 41 37 36 35 35 33 31 30 31 33 34 35 36 35 35 33 29 24 22 21 19 18 19 22 26 29 30 32 33 36 37 36 37 39 40 40 41 42 42 43 49 52 54 54 53 53 56 60 60 62 65 68 72 76 76 75 75 75 73 69 65 60 55 49 46 44 43 43 42 42 42 42 40 37 34 29 23 17 15 14 14
47 47 47 47 43 38 36 35 34 33 32 31 31 33 35 36 35 34 33 33 29 25 24 22 22 22 22 24 28 31 31 32 35 38 41 43 46 49 46 43 43 42 42 45 51 56 58 59 59 59 64 69 71 71 73 74 75 76 77 77 77 75 72 69 63 58 53 49 47 46 46 45 44 43 42 41 38 33 26 20 16 16 15 14 14
45 46 48 48 46 41 37 35 34 34 32 32 32 34 35 35 35 34 33 31 28 25 24 24 24 25 24 26 29 32 31 32 35 39 43 48 52 55 55 53 49 44 42 45 52 59 63 65 67 68 71 74 76 78 76 76 75 75 77 77 75 73 70 66 61 56 53 50 48 47 47 46 44 42 41 39 33 25 19 17 16 16 16 15 15
44 46 48 49 47 43 38 34 35 35 33 33 34 36 37 36 35 34 32 31 29 26 24 25 25 25 26 28 31 32 32 32 36 41 44 51 56 57 59 60 57 51 47 49 55 62 67 70 73 75 76 76 77 78 78 79 77 75 76 76 73 70 67 63 59 57 53 50 49 49 47 45 44 43 40 36 27 20 17 18 17 17 16 16 16
45 46 48 49 48 44 40 37 36 35 34 34 36 38 38 37 35 34 33 32 29 26 24 24 24 24 27 31 33 33 32 33 37 41 47 55 59 59 60 60 59 57 55 56 60 66 70 73 76 77 78 76 76 76 78 80 77 75 76 75 71 67 64 61 58 55 51 50 51 49 47 46 45 43 38 30 21 18 18 18 18 18 17 16 17
48 48 48 50 49 47 44 40 37 37 36 36 39 40 39 38 36 35 34 32 30 28 25 23 23 24 27 30 33 34 34 34 38 43 50 58 61 61 61 60 60 59 59 60 62 66 70 73 76 78 78 77 75 75 76 77 76 75 75 73 68 63 62 60 57 54 51 51 51 49 48 47 45 41 34 24 19 18 19 18 18 17 17 17 17
50 49 49 50 50 48 46 43 40 38 36 37 41 41 40 39 37 36 35 34 32 31 28 25 24 23 25 28 33 35 35 36 40 46 53 59 62 62 62 61 60 60 61 61 63 65 69 72 74 77 78 77 75 75 75 74 76 76 73 69 64 60 61 59 57 54 53 52 50 50 49 47 44 37 27 21 19 19 18 19 18 18 17 17 17
49 49 49 50 50 47 44 44 42 39 36 38 41 42 40 40 39 38 37 36 35 34 32 28 25 24 24 28 33 36 37 39 44 50 55 59 62 64 63 61 62 62 63 63 63 66 69 70 71 75 77 76 74 75 75 74 75 75 70 65 62 62 61 58 55 53 52 51 51 51 49 47 43 31 22 20 19 19 19 19 19 18 18 18 19
48 49 49 50 50 48 44 44 44 39 36 38 41 41 41 40 39 39 39 38 36 34 32 28 26 25 25 29 33 36 37 40 47 53 56 59 62 65 63 63 64 65 66 64 64 67 69 69 70 73 75 73 72 74 76 74 74 72 68 65 63 62 60 57 54 52 51 51 52 51 48 46 38 26 20 21 20 19 20 19 19 19 20 20 20
47 48 49 51 52 49 46 46 45 40 37 39 40 41 41 40 40 40 40 39 37 34 33 30 29 27 27 29 32 36 38 42 49 54 56 58 62 64 63 64 67 68 67 65 66 69 71 71 70 71 72 70 71 73 75 73 71 69 66 63 62 59 57 55 52 51 50 52 52 49 47 42 31 23 21 20 20 20 19 20 20 21 21 21 20
48 47 49 50 51 50 49 48 45 40 39 40 40 41 41 40 40 40 40 40 38 35 34 34 32 30 30 32 34 37 39 42 49 55 56 58 62 63 64 66 69 70 68 66 67 70 73 72 69 69 68 67 68 72 74 72 68 65 63 60 58 55 54 52 50 49 51 52 50 49 45 35 25 21 21 20 20 20 20 21 22 22 22 22 21
49 47 48 47 48 50 50 49 46 42 42 42 41 42 42 42 42 41 41 41 40 38 36 37 36 34 33 35 36 39 42 44 49 53 56 59 63 64 66 70 71 70 68 67 69 71 73 71 68 69 66 62 63 67 69 67 63 60 57 55 54 52 51 49 49 49 51 51 49 47 40 28 22 22 21 21 21 21 21 22 23 23 23 23 23
49 47 46 46 48 49 49 49 47 44 43 42 42 43 44 45 43 42 42 42 42 41 38 38 38 36 36 37 37 40 45 47 48 52 56 60 64 66 69 73 74 70 67 68 71 72 72 72 71 72 68 59 56 58 60 59 57 55 53 52 51 50 49 48 48 49 50 49 47 46 37 25 22 22 21 22 22 22 23 24 25 25 25 25 25
46 45 46 47 48 48 48 49 48 46 43 42 44 46 46 45 43 43 43 42 43 42 40 40 41 38 37 38 38 41 47 48 49 53 57 60 64 68 71 74 75 71 68 69 71 72 72 73 74 76 70 59 53 54 53 53 53 52 52 51 50 49 48 48 48 48 49 48 47 45 34 24 23 23 21 22 22 24 26 27 27 27 28 27 27
43 44 47 48 47 47 49 50 49 46 44 44 46 47 46 45 45 44 44 44 44 44 42 41 41 39 38 39 40 42 46 47 50 55 58 60 65 68 71 74 75 72 70 69 71 71 73 75 76 76 71 61 54 53 52 52 51 51 51 51 49 48 46 46 47 47 47 47 47 45 32 24 24 23 21 22 23 25 27 29 29 30 30 29 29
42 43 45 46 46 47 51 52 48 45 46 46 46 46 46 46 47 47 46 45 45 45 44 42 41 40 40 41 41 43 45 44 48 55 59 60 64 67 71 74 74 71 71 71 71 72 74 77 78 76 73 63 57 55 55 54 53 52 51 50 49 48 46 46 46 46 46 46 48 45 32 25 25 23 22 24 24 27 29 30 31 31 31 30 29
41 41 43 44 45 46 51 51 48 47 48 47 45 45 46 47 49 49 49 48 45 44 44 44 44 44 44 43 43 43 43 42 47 54 58 60 63 67 70 73 73 71 70 71 73 75 76 79 79 79 74 66 60 58 56 53 53 53 52 50 48 47 47 48 47 45 46 46 48 46 33 25 26 25 25 26 26 27 29 30 31 31 31 30 29
40 39 41 43 44 47 51 52 50 48 46 44 43 43 46 47 47 48 49 48 45 43 45 46 46 46 45 43 42 41 40 42 47 54 57 59 63 67 70 72 72 71 69 71 73 76 78 80 80 80 74 67 63 60 55 52 51 52 52 51 49 48 48 48 47 46 47 46 48 46 35 26 26 28 28 28 27 29 30 31 31 31 30 30 30
40 40 41 41 43 47 51 53 52 47 43 42 41 42 44 45 46 45 46 46 42 42 46 49 49 47 43 40 38 37 38 42 48 54 56 59 64 68 70 72 72 71 70 71 73 75 78 80 81 79 73 67 63 57 54 52 51 52 52 51 51 50 50 50 50 49 49 48 47 47 38 28 28 31 31 31 31 32 33 34 33 32 31 31 32
38 41 41 40 41 45 50 54 52 46 43 42 41 40 41 44 45 46 46 45 41 41 46 51 52 49 44 38 35 36 38 42 48 54 57 60 66 69 71 73 72 71 69 70 73 75 78 80 81 78 71 65 60 56 54 54 53 53 52 51 51 51 53 53 54 53 52 50 47 46 40 31 30 33 34 34 34 36 37 37 35 34 34 35 34
39 41 41 40 39 43 48 51 51 47 45 44 41 40 40 42 45 46 47 47 44 42 45 51 53 50 44 37 35 36 39 44 50 57 61 64 70 71 71 73 72 69 68 69 72 74 78 79 80 77 70 64 59 57 56 55 54 53 51 50 50 51 53 54 55 54 53 50 47 45 42 35 32 35 36 37 38 39 39 39 38 37 38 38 36
39 42 44 43 41 42 46 47 47 46 45 44 42 41 41 41 43 44 47 48 46 45 47 50 52 49 42 37 36 37 40 47 55 65 69 69 71 71 70 70 70 68 67 69 71 73 76 77 78 76 69 63 60 57 54 52 52 51 51 50 50 51 54 54 54 54 52 50 48 47 45 41 37 36 38 40 42 43 42 42 41 41 40 38 35
43 45 46 46 45 44 44 44 46 46 44 42 41 41 41 40 40 41 45 48 47 47 47 48 51 48 41 38 37 39 44 51 62 74 75 71 70 69 67 67 67 66 68 69 70 72 74 76 75 73 69 65 62 57 53 51 50 51 50 50 51 51 52 52 51 51 51 51 51 50 49 46 41 39 41 44 46 45 45 45 45 43 40 36 34